N905DH KBHM-KBHM

Flight info

Callsign N905DH
Flight time 0h 20m
Altitude 1500
Route VFR CLOSED TRAFFIC
Aircraft SR20/L-SDGRY/S

Departure

Time 2026-04-25 02:15
Airport Birmingham-Shuttlesworth International Airport (KBHM)

Arrival

Time 2026-04-25 02:35
Airport Birmingham-Shuttlesworth International Airport (KBHM)
Time Latitude Longitude Altitude Speed Heading
2026-04-25 01:45 33.56422 -86.74261 629 ft 0 kts 353°
2026-04-25 02:08 33.56429 -86.74263 629 ft 3 kts 346°
2026-04-25 02:08 33.56446 -86.74276 630 ft 4 kts 304°
2026-04-25 02:09 33.56450 -86.74322 629 ft 5 kts 268°
2026-04-25 02:09 33.56446 -86.74358 629 ft 5 kts 262°
2026-04-25 02:09 33.56442 -86.74408 628 ft 7 kts 262°
2026-04-25 02:09 33.56437 -86.74477 627 ft 7 kts 267°
2026-04-25 02:10 33.56431 -86.74537 627 ft 7 kts 264°
2026-04-25 02:10 33.56451 -86.74588 627 ft 9 kts 347°
2026-04-25 02:10 33.56538 -86.74589 628 ft 14 kts
2026-04-25 02:10 33.56628 -86.74590 631 ft 12 kts
2026-04-25 02:11 33.56712 -86.74590 632 ft 11 kts
2026-04-25 02:11 33.56774 -86.74559 634 ft 10 kts 56°
2026-04-25 02:11 33.56828 -86.74468 636 ft 16 kts 56°
2026-04-25 02:11 33.56884 -86.74369 639 ft 10 kts 55°
2026-04-25 02:12 33.56935 -86.74282 640 ft 13 kts 57°
2026-04-25 02:12 33.56978 -86.74207 643 ft 11 kts 51°
2026-04-25 02:12 33.57034 -86.74110 646 ft 13 kts 54°
2026-04-25 02:12 33.57084 -86.74023 650 ft 13 kts 56°
2026-04-25 02:13 33.57145 -86.73915 653 ft 17 kts 56°
2026-04-25 02:13 33.57202 -86.73835 656 ft 7 kts 28°
2026-04-25 02:13 33.57267 -86.73859 659 ft 12 kts 319°
2026-04-25 02:13 33.57322 -86.73923 659 ft 13 kts 282°
2026-04-25 02:14 33.57235 -86.74104 651 ft 50 kts 235°
2026-04-25 02:14 33.56939 -86.74618 696 ft 89 kts 230°
2026-04-25 02:14 33.56574 -86.75254 884 ft 99 kts 232°
2026-04-25 02:14 33.56197 -86.75956 1158 ft 100 kts 234°
2026-04-25 02:15 33.55722 -86.76534 1440 ft 97 kts 203°
2026-04-25 02:15 33.55067 -86.76505 1587 ft 100 kts 155°
2026-04-25 02:15 33.54458 -86.76072 1652 ft 105 kts 148°
2026-04-25 02:15 33.53985 -86.75478 1682 ft 99 kts 100°
2026-04-25 02:16 33.54238 -86.74684 1682 ft 109 kts 57°
2026-04-25 02:16 33.54694 -86.73920 1667 ft 115 kts 56°
2026-04-25 02:16 33.55191 -86.73134 1660 ft 119 kts 52°
2026-04-25 02:16 33.55737 -86.72353 1641 ft 123 kts 51°
2026-04-25 02:17 33.56250 -86.71663 1568 ft 103 kts 50°
2026-04-25 02:17 33.56769 -86.71133 1451 ft 98 kts 13°
2026-04-25 02:17 33.57392 -86.71359 1286 ft 93 kts 323°
2026-04-25 02:17 33.57888 -86.71774 1293 ft 85 kts 316°
2026-04-25 02:18 33.58157 -86.72340 1283 ft 75 kts 249°
2026-04-25 02:18 33.57933 -86.72903 1089 ft 74 kts 233°
2026-04-25 02:18 33.57638 -86.73401 930 ft 70 kts 233°
2026-04-25 02:18 33.57364 -86.73882 776 ft 72 kts 231°
2026-04-25 02:19 33.57079 -86.74377 655 ft 70 kts 232°
2026-04-25 02:19 33.56836 -86.74799 637 ft 55 kts 236°
2026-04-25 02:19 33.56536 -86.75326 723 ft 87 kts 231°
2026-04-25 02:19 33.56150 -86.75958 914 ft 100 kts 230°
2026-04-25 02:20 33.55718 -86.76610 1218 ft 96 kts 206°
2026-04-25 02:20 33.55120 -86.76457 1514 ft 97 kts 148°
2026-04-25 02:20 33.54539 -86.75917 1627 ft 113 kts 130°
2026-04-25 02:20 33.54596 -86.74963 1635 ft 131 kts 57°
2026-04-25 02:21 33.55100 -86.74076 1714 ft 123 kts 57°
2026-04-25 02:21 33.55609 -86.73269 1761 ft 122 kts 53°
2026-04-25 02:21 33.56187 -86.72430 1603 ft 136 kts 51°
2026-04-25 02:21 33.56826 -86.71581 1567 ft 132 kts 49°
2026-04-25 02:22 33.57555 -86.71444 1554 ft 106 kts 323°
2026-04-25 02:22 33.58120 -86.71963 1443 ft 90 kts 304°
2026-04-25 02:22 33.58091 -86.72575 1272 ft 78 kts 239°
2026-04-25 02:22 33.57809 -86.73125 1068 ft 76 kts 228°
2026-04-25 02:23 33.57513 -86.73628 894 ft 73 kts 231°
2026-04-25 02:23 33.57228 -86.74120 717 ft 71 kts 231°
2026-04-25 02:23 33.56960 -86.74583 642 ft 60 kts 232°
2026-04-25 02:23 33.56724 -86.74994 632 ft 77 kts 234°
2026-04-25 02:24 33.56377 -86.75596 822 ft 88 kts 230°
2026-04-25 02:24 33.55971 -86.76203 1055 ft 94 kts 208°
2026-04-25 02:24 33.55380 -86.76106 1362 ft 93 kts 146°
2026-04-25 02:24 33.54838 -86.75589 1510 ft 106 kts 141°
2026-04-25 02:25 33.54683 -86.74728 1635 ft 124 kts 71°
2026-04-25 02:25 33.55215 -86.73845 1642 ft 134 kts 53°
2026-04-25 02:25 33.55795 -86.72922 1620 ft 141 kts 54°
2026-04-25 02:25 33.56393 -86.71988 1653 ft 132 kts 55°
2026-04-25 02:26 33.57052 -86.71455 1578 ft 110 kts 351°
2026-04-25 02:26 33.57695 -86.71845 1419 ft 94 kts 320°
2026-04-25 02:26 33.58050 -86.72378 1291 ft 77 kts 259°
2026-04-25 02:26 33.57877 -86.72973 1092 ft 74 kts 237°
2026-04-25 02:27 33.57595 -86.73476 928 ft 70 kts 230°
2026-04-25 02:27 33.57325 -86.73953 772 ft 69 kts 230°
2026-04-25 02:27 33.57049 -86.74429 651 ft 65 kts 231°
2026-04-25 02:27 33.56823 -86.74822 636 ft 62 kts 234°
2026-04-25 02:28 33.56515 -86.75375 776 ft 85 kts 232°
2026-04-25 02:28 33.56149 -86.75954 1005 ft 91 kts 219°
2026-04-25 02:28 33.55577 -86.75925 1252 ft 96 kts 145°
2026-04-25 02:28 33.55008 -86.75425 1440 ft 106 kts 144°
2026-04-25 02:29 33.54834 -86.74601 1622 ft 122 kts 70°
2026-04-25 02:29 33.55371 -86.73711 1609 ft 139 kts 56°
2026-04-25 02:29 33.55956 -86.72732 1657 ft 145 kts 54°
2026-04-25 02:29 33.56592 -86.71817 1680 ft 134 kts 50°
2026-04-25 02:30 33.57261 -86.71263 1619 ft 110 kts 354°
2026-04-25 02:30 33.57911 -86.71692 1395 ft 101 kts 315°
2026-04-25 02:30 33.58128 -86.72328 1253 ft 80 kts 252°
2026-04-25 02:30 33.57915 -86.72919 1077 ft 77 kts 234°
2026-04-25 02:31 33.57610 -86.73455 905 ft 78 kts 232°
2026-04-25 02:31 33.57315 -86.73970 758 ft 72 kts 231°
2026-04-25 02:31 33.57034 -86.74455 645 ft 64 kts 232°
2026-04-25 02:31 33.56798 -86.74864 635 ft 73 kts 235°
2026-04-25 02:32 33.56469 -86.75442 790 ft 91 kts 231°
2026-04-25 02:32 33.56077 -86.76114 1006 ft 101 kts 232°
2026-04-25 02:32 33.55574 -86.76642 1286 ft 99 kts 186°
2026-04-25 02:32 33.54933 -86.76274 1460 ft 112 kts 143°
2026-04-25 02:33 33.54468 -86.75505 1581 ft 124 kts 95°
2026-04-25 02:33 33.54923 -86.74575 1585 ft 141 kts 53°
2026-04-25 02:33 33.55537 -86.73640 1597 ft 141 kts 52°
2026-04-25 02:33 33.56120 -86.72731 1631 ft 133 kts 55°
2026-04-25 02:34 33.56672 -86.71879 1665 ft 119 kts 43°
2026-04-25 02:34 33.57390 -86.71733 1557 ft 100 kts 335°
2026-04-25 02:34 33.57928 -86.72211 1349 ft 93 kts 307°
2026-04-25 02:34 33.57966 -86.72841 1151 ft 78 kts 232°
2026-04-25 02:35 33.57674 -86.73350 966 ft 72 kts 226°
2026-04-25 02:35 33.57385 -86.73838 748 ft 71 kts 226°
2026-04-25 02:35 33.57125 -86.74298 646 ft 60 kts 232°
2026-04-25 02:35 33.57010 -86.74457 642 ft 9 kts 128°
2026-04-25 02:36 33.56966 -86.74406 641 ft 6 kts 145°
2026-04-25 02:36 33.56934 -86.74381 640 ft 4 kts 148°
2026-04-25 02:36 33.56911 -86.74365 639 ft 5 kts 168°
2026-04-25 02:36 33.56859 -86.74416 638 ft 12 kts 235°
2026-04-25 02:37 33.56807 -86.74506 635 ft 12 kts 232°
2026-04-25 02:37 33.56764 -86.74576 634 ft 8 kts 223°
2026-04-25 02:37 33.56711 -86.74590 632 ft 6 kts 179°
2026-04-25 02:37 33.56676 -86.74590 631 ft 3 kts 180°
2026-04-25 02:38 33.56640 -86.74549 631 ft 13 kts 91°
2026-04-25 02:38 33.56641 -86.74454 632 ft 9 kts 90°
2026-04-25 02:38 33.56657 -86.74400 633 ft 6 kts 11°
2026-04-25 02:38 33.56696 -86.74398 634 ft 1 kts 69°
2026-04-25 02:39 33.56690 -86.74392 634 ft 0 kts 153°
2026-04-25 02:39 33.56689 -86.74390 634 ft 0 kts 145°